When you browse on this site, cookies collect data to enhance your experience and personalize the content and advertising you see.
Visit our Privacy Policy to learn more. By continuing to use the site, you agree to this use of cookies and data.
  • Em Portugal
  • Lista de países
  • Para 7 dias
  • Temperatura da água
  • Mapas de satélite
  • Mapa do tempo
  • Widgets de tempo
  • user-avatar
    Iniciar Sessão

    Previsão horária em Karak

    Hoje, 22 Janeiro, Terça-feira

    Tempo Temperatura Precipitação Vento Pressão Humidade
    00:00 +11°C° 0 mm 1 m/s 680 mmHg 35%
    01:00 +10°C° 0 mm 1 m/s 680 mmHg 36%
    02:00 +10°C° 0 mm 2 m/s 680 mmHg 33%
    03:00 +9°C° 0 mm 2 m/s 680 mmHg 36%
    04:00 +9°C° 0 mm 2 m/s 680 mmHg 39%
    05:00 +10°C° 0 mm 1 m/s 679 mmHg 42%
    06:00 +10°C° 0 mm 1 m/s 680 mmHg 41%
    07:00 +11°C° 0 mm 1 m/s 680 mmHg 40%
    08:00 +13°C° 0 mm 1 m/s 681 mmHg 37%
    09:00 +14°C° 0 mm 2 m/s 681 mmHg 34%
    10:00 +14°C° 0 mm 3 m/s 681 mmHg 30%
    11:00 +15°C° 0 mm 4 m/s 681 mmHg 27%
    12:00 +15°C° 0 mm 4 m/s 681 mmHg 27%
    13:00 +16°C° 0 mm 5 m/s 681 mmHg 27%
    14:00 +15°C° 0 mm 4 m/s 681 mmHg 30%
    15:00 +14°C° 0 mm 4 m/s 681 mmHg 33%
    16:00 +14°C° 0 mm 3 m/s 680 mmHg 37%
    17:00 +13°C° 0 mm 3 m/s 680 mmHg 40%
    18:00 +12°C° 0 mm 3 m/s 680 mmHg 46%
    19:00 +12°C° 0 mm 2 m/s 680 mmHg 51%
    20:00 +10°C° 0 mm 2 m/s 680 mmHg 57%
    21:00 +10°C° 0 mm 1 m/s 680 mmHg 61%
    22:00 +10°C° 0 mm 1 m/s 680 mmHg 65%
    23:00 +9°C° 0 mm 1 m/s 680 mmHg 70%

    Amanhã, 23 Janeiro, Quarta-feira

    Tempo Temperatura Precipitação Vento Pressão Humidade
    00:00 +9°C° 0 mm 1 m/s 680 mmHg 71%
    01:00 +8°C° 0 mm 1 m/s 680 mmHg 73%
    02:00 +8°C° 0 mm 1 m/s 680 mmHg 75%
    03:00 +8°C° 0 mm 1 m/s 680 mmHg 74%
    04:00 +7°C° 0 mm 1 m/s 680 mmHg 74%
    05:00 +7°C° 0 mm 1 m/s 680 mmHg 73%
    06:00 +8°C° 0 mm 1 m/s 680 mmHg 68%
    07:00 +7°C° 0 mm 2 m/s 680 mmHg 62%
    08:00 +8°C° 0 mm 2 m/s 681 mmHg 57%
    09:00 +10°C° 0 mm 2 m/s 681 mmHg 49%
    10:00 +12°C° 0 mm 2 m/s 681 mmHg 41%
    11:00 +14°C° 0 mm 2 m/s 681 mmHg 33%
    12:00 +15°C° 0 mm 2 m/s 681 mmHg 29%
    13:00 +15°C° 0 mm 2 m/s 680 mmHg 25%
    14:00 +16°C° 0 mm 2 m/s 680 mmHg 21%
    15:00 +15°C° 0 mm 1 m/s 679 mmHg 23%
    16:00 +15°C° 0 mm 1 m/s 679 mmHg 25%
    17:00 +13°C° 0 mm 0 m/s 679 mmHg 28%
    18:00 +13°C° 0 mm 1 m/s 679 mmHg 28%
    19:00 +13°C° 0 mm 2 m/s 679 mmHg 28%
    20:00 +12°C° 0 mm 2 m/s 679 mmHg 28%
    21:00 +12°C° 0 mm 2 m/s 679 mmHg 28%
    22:00 +12°C° 0 mm 2 m/s 678 mmHg 29%
    23:00 +10°C° 0 mm 2 m/s 678 mmHg 29%

    Depois de amanhã, 24 Janeiro, Quinta-feira

    Tempo Temperatura Precipitação Vento Pressão Humidade
    00:00 +10°C° 0 mm 3 m/s 678 mmHg 29%
    01:00 +10°C° 0 mm 3 m/s 678 mmHg 29%
    02:00 +10°C° 0 mm 3 m/s 678 mmHg 29%
    03:00 +10°C° 0 mm 3 m/s 678 mmHg 28%
    04:00 +9°C° 0 mm 3 m/s 677 mmHg 28%
    05:00 +9°C° 0 mm 3 m/s 677 mmHg 27%
    06:00 +10°C° 0 mm 3 m/s 677 mmHg 26%
    07:00 +10°C° 0 mm 3 m/s 678 mmHg 24%
    08:00 +11°C° 0 mm 3 m/s 678 mmHg 23%
    09:00 +13°C° 0 mm 3 m/s 678 mmHg 20%
    10:00 +16°C° 0 mm 3 m/s 679 mmHg 18%
    11:00 +18°C° 0 mm 2 m/s 679 mmHg 15%
    12:00 +19°C° 0 mm 3 m/s 678 mmHg 14%
    13:00 +20°C° 0 mm 3 m/s 678 mmHg 14%
    14:00 +21°C° 0 mm 4 m/s 677 mmHg 13%
    15:00 +19°C° 0 mm 3 m/s 677 mmHg 17%
    16:00 +18°C° 0 mm 2 m/s 677 mmHg 20%
    17:00 +17°C° 0 mm 2 m/s 677 mmHg 24%
    18:00 +16°C° 0 mm 2 m/s 677 mmHg 28%
    19:00 +14°C° 0 mm 3 m/s 678 mmHg 32%
    20:00 +13°C° 0 mm 4 m/s 678 mmHg 37%
    21:00 +12°C° 0 mm 3 m/s 679 mmHg 41%
    22:00 +11°C° 0 mm 3 m/s 679 mmHg 45%
    23:00 +10°C° 0 mm 2 m/s 679 mmHg 49%

    25 Janeiro, Sexta-feira

    Tempo Temperatura Precipitação Vento Pressão Humidade
    00:00 +10°C° 0 mm 2 m/s 679 mmHg 53%
    01:00 +9°C° 0 mm 2 m/s 679 mmHg 57%
    02:00 +9°C° 0 mm 1 m/s 679 mmHg 61%
    03:00 +9°C° 0 mm 1 m/s 679 mmHg 62%
    04:00 +9°C° 0 mm 1 m/s 679 mmHg 63%
    05:00 +8°C° 0 mm 1 m/s 678 mmHg 64%
    06:00 +8°C° 0 mm 2 m/s 679 mmHg 59%
    07:00 +9°C° 0 mm 2 m/s 679 mmHg 53%
    08:00 +10°C° 0 mm 2 m/s 680 mmHg 48%
    09:00 +13°C° 0 mm 2 m/s 680 mmHg 42%
    10:00 +14°C° 0 mm 2 m/s 680 mmHg 36%
    11:00 +16°C° 0 mm 2 m/s 680 mmHg 30%
    12:00 +17°C° 0 mm 2 m/s 680 mmHg 30%
    13:00 +18°C° 0 mm 2 m/s 680 mmHg 30%
    14:00 +18°C° 0 mm 2 m/s 679 mmHg 29%
    15:00 +18°C° 0 mm 2 m/s 679 mmHg 32%
    16:00 +17°C° 0 mm 2 m/s 678 mmHg 34%
    17:00 +16°C° 0 mm 2 m/s 678 mmHg 36%
    18:00 +15°C° 0 mm 2 m/s 678 mmHg 39%
    19:00 +14°C° 0 mm 1 m/s 678 mmHg 41%
    20:00 +13°C° 0 mm 1 m/s 678 mmHg 44%
    21:00 +13°C° 0 mm 1 m/s 678 mmHg 44%
    22:00 +13°C° 0 mm 1 m/s 678 mmHg 45%
    23:00 +12°C° 0 mm 1 m/s 678 mmHg 46%

    26 Janeiro, Sábado

    Tempo Temperatura Precipitação Vento Pressão Humidade
    00:00 +12°C° 0 mm 1 m/s 678 mmHg 46%
    01:00 +12°C° 0 mm 1 m/s 677 mmHg 45%
    02:00 +11°C° 0 mm 1 m/s 677 mmHg 45%
    03:00 +11°C° 0 mm 1 m/s 677 mmHg 45%
    04:00 +11°C° 0 mm 1 m/s 677 mmHg 46%
    05:00 +11°C° 0 mm 1 m/s 677 mmHg 46%
    06:00 +12°C° 0 mm 1 m/s 677 mmHg 45%
    07:00 +13°C° 0 mm 1 m/s 678 mmHg 44%
    08:00 +13°C° 0 mm 1 m/s 678 mmHg 44%
    09:00 +15°C° 0 mm 2 m/s 679 mmHg 40%
    10:00 +17°C° 0 mm 3 m/s 679 mmHg 36%
    11:00 +19°C° 0 mm 4 m/s 679 mmHg 33%
    12:00 +19°C° 0 mm 5 m/s 679 mmHg 30%
    13:00 +19°C° 0 mm 5 m/s 679 mmHg 28%
    14:00 +20°C° 0 mm 6 m/s 679 mmHg 25%
    15:00 +17°C° 0 mm 5 m/s 678 mmHg 26%
    16:00 +17°C° 0 mm 4 m/s 678 mmHg 28%
    17:00 +16°C° 0 mm 3 m/s 678 mmHg 29%
    18:00 +15°C° 0 mm 2 m/s 678 mmHg 33%
    19:00 +13°C° 0 mm 1 m/s 678 mmHg 38%
    20:00 +12°C° 0 mm 1 m/s 678 mmHg 42%
    21:00 +12°C° 0 mm 1 m/s 678 mmHg 43%
    22:00 +11°C° 0 mm 1 m/s 678 mmHg 43%
    23:00 +11°C° 0 mm 1 m/s 678 mmHg 44%

    27 Janeiro, Domingo

    Tempo Temperatura Precipitação Vento Pressão Humidade
    00:00 +11°C° 0 mm 1 m/s 678 mmHg 44%
    01:00 +10°C° 0 mm 1 m/s 678 mmHg 43%
    02:00 +10°C° 0 mm 1 m/s 678 mmHg 43%
    03:00 +10°C° 0 mm 1 m/s 678 mmHg 43%
    04:00 +9°C° 0 mm 1 m/s 678 mmHg 42%
    05:00 +9°C° 0 mm 1 m/s 677 mmHg 42%
    06:00 +10°C° 0 mm 1 m/s 678 mmHg 39%
    07:00 +11°C° 0 mm 1 m/s 679 mmHg 37%
    08:00 +12°C° 0 mm 1 m/s 679 mmHg 34%
    09:00 +13°C° 0 mm 1 m/s 679 mmHg 30%
    10:00 +15°C° 0 mm 1 m/s 680 mmHg 25%
    11:00 +16°C° 0 mm 1 m/s 680 mmHg 21%
    12:00 +17°C° 0 mm 2 m/s 679 mmHg 19%
    13:00 +18°C° 0 mm 2 m/s 679 mmHg 17%
    14:00 +18°C° 0 mm 3 m/s 678 mmHg 16%
    15:00 +17°C° 0 mm 2 m/s 678 mmHg 17%
    16:00 +16°C° 0 mm 2 m/s 678 mmHg 19%
    17:00 +16°C° 0 mm 1 m/s 677 mmHg 20%
    18:00 +15°C° 0 mm 1 m/s 677 mmHg 22%
    19:00 +14°C° 0 mm 1 m/s 677 mmHg 24%
    20:00 +12°C° 0 mm 0 m/s 677 mmHg 25%
    21:00 +12°C° 0 mm 0 m/s 677 mmHg 26%
    22:00 +11°C° 0 mm 0 m/s 676 mmHg 27%
    23:00 +11°C° 0 mm 0 m/s 676 mmHg 28%
    Mostrar mais